Location: Kumla
(59.1265°N, 15.1401°E)
Time: 18:31:47
(UTC+01:00)

Transit 2A - Pass Details

Date: 07 December 2023
Orbit: 600 x 953 km, 66.7° (Epoch: 27 February)

Event Time Altitude Azimuth Distance (km) Brightness Sun altitude
Rises 00:01:32 0° 309° (NW) 2,875 - -53.4°
Reaches altitude 10° 00:04:05 10° 296° (WNW) 1,954 - -53.3°
Maximum altitude 00:07:37 24° 241° (WSW) 1,246 - -53.3°
Drops below altitude 10° 00:11:09 10° 187° (S) 1,965 - -53.2°
Sets 00:13:44 0° 174° (S) 2,894 - -53.2°
